Year,Month,Day,Hour,Minute,Value (Times are PST for temperature in C)
2016,08,24,00,00,15.60
2016,08,24,00,01,15.60
2016,08,24,00,02,15.50
2016,08,24,00,03,15.50
2016,08,24,00,04,15.50
2016,08,24,00,05,15.40
2016,08,24,00,06,15.40
2016,08,24,00,07,15.40
2016,08,24,00,08,15.40
2016,08,24,00,09,15.40
2016,08,24,00,10,15.30
2016,08,24,00,11,15.30
2016,08,24,00,12,15.30
2016,08,24,00,13,15.30
2016,08,24,00,14,15.20
2016,08,24,00,15,15.20
2016,08,24,00,16,15.20
2016,08,24,00,17,15.20
2016,08,24,00,18,15.10
2016,08,24,00,19,15.10
2016,08,24,00,20,15.10
2016,08,24,00,21,15.10
2016,08,24,00,22,15.10
2016,08,24,00,23,15.10
2016,08,24,00,24,15.00
2016,08,24,00,25,15.00
2016,08,24,00,26,15.00
2016,08,24,00,27,15.00
2016,08,24,00,28,15.00
2016,08,24,00,29,15.00
2016,08,24,00,30,15.00
2016,08,24,00,31,15.00
2016,08,24,00,32,15.00
2016,08,24,00,33,15.00
2016,08,24,00,34,15.00
2016,08,24,00,35,15.00
2016,08,24,00,36,15.00
2016,08,24,00,37,15.00
2016,08,24,00,38,15.00
2016,08,24,00,39,15.00
2016,08,24,00,40,14.90
2016,08,24,00,41,14.90
2016,08,24,00,42,14.90
2016,08,24,00,43,14.90
2016,08,24,00,44,14.90
2016,08,24,00,45,14.80
2016,08,24,00,46,14.80
2016,08,24,00,47,14.80
2016,08,24,00,48,14.80
2016,08,24,00,49,14.80
2016,08,24,00,50,14.70
2016,08,24,00,51,14.70
2016,08,24,00,52,14.70
2016,08,24,00,53,14.70
2016,08,24,00,54,14.60
2016,08,24,00,55,14.60
2016,08,24,00,56,14.60
2016,08,24,00,57,14.60
2016,08,24,00,58,14.60
2016,08,24,00,59,14.60
2016,08,24,01,00,14.60
2016,08,24,01,01,14.60
2016,08,24,01,02,14.60
2016,08,24,01,03,14.60
2016,08,24,01,04,14.60
2016,08,24,01,05,14.60
2016,08,24,01,06,14.60
2016,08,24,01,07,14.60
2016,08,24,01,08,14.60
2016,08,24,01,09,14.60
2016,08,24,01,10,14.60
2016,08,24,01,11,14.50
2016,08,24,01,12,14.50
2016,08,24,01,13,14.50
2016,08,24,01,14,14.50
2016,08,24,01,15,14.50
2016,08,24,01,16,14.50
2016,08,24,01,17,14.40
2016,08,24,01,18,14.40
2016,08,24,01,19,14.40
2016,08,24,01,20,14.40
2016,08,24,01,21,14.40
2016,08,24,01,22,14.40
2016,08,24,01,23,14.40
2016,08,24,01,24,14.40
2016,08,24,01,25,14.40
2016,08,24,01,26,14.40
2016,08,24,01,27,14.40
2016,08,24,01,28,14.40
2016,08,24,01,29,14.30
2016,08,24,01,30,14.30
2016,08,24,01,31,14.30
2016,08,24,01,32,14.30
2016,08,24,01,33,14.30
2016,08,24,01,34,14.30
2016,08,24,01,35,14.30
2016,08,24,01,36,14.30
2016,08,24,01,37,14.30
2016,08,24,01,38,14.30
2016,08,24,01,39,14.30
2016,08,24,01,40,14.30
2016,08,24,01,41,14.30
2016,08,24,01,42,14.30
2016,08,24,01,43,14.30
2016,08,24,01,44,14.30
2016,08,24,01,45,14.30
2016,08,24,01,46,14.30
2016,08,24,01,47,14.30
2016,08,24,01,48,14.30
2016,08,24,01,49,14.30
2016,08,24,01,50,14.30
2016,08,24,01,51,14.30
2016,08,24,01,52,14.20
2016,08,24,01,53,14.20
2016,08,24,01,54,14.20
2016,08,24,01,55,14.20
2016,08,24,01,56,14.20
2016,08,24,01,57,14.20
2016,08,24,01,58,14.10
2016,08,24,01,59,14.10
2016,08,24,02,00,14.10
2016,08,24,02,01,14.10
2016,08,24,02,02,14.10
2016,08,24,02,03,14.10
2016,08,24,02,04,14.10
2016,08,24,02,05,14.00
2016,08,24,02,06,14.00
2016,08,24,02,07,14.00
2016,08,24,02,08,14.00
2016,08,24,02,09,14.00
2016,08,24,02,10,14.00
2016,08,24,02,11,14.00
2016,08,24,02,12,14.10
2016,08,24,02,13,14.10
2016,08,24,02,14,14.10
2016,08,24,02,15,14.10
2016,08,24,02,16,14.10
2016,08,24,02,17,14.10
2016,08,24,02,18,14.20
2016,08,24,02,19,14.20
2016,08,24,02,20,14.20
2016,08,24,02,21,14.20
2016,08,24,02,22,14.30
2016,08,24,02,23,14.30
2016,08,24,02,24,14.30
2016,08,24,02,25,14.40
2016,08,24,02,26,14.40
2016,08,24,02,27,14.50
2016,08,24,02,28,14.50
2016,08,24,02,29,14.60
2016,08,24,02,30,14.60
2016,08,24,02,31,14.60
2016,08,24,02,32,14.60
2016,08,24,02,33,14.60
2016,08,24,02,34,14.60
2016,08,24,02,35,14.70
2016,08,24,02,36,14.70
2016,08,24,02,37,14.70
2016,08,24,02,38,14.60
2016,08,24,02,39,14.60
2016,08,24,02,40,14.60
2016,08,24,02,41,14.50
2016,08,24,02,42,14.40
2016,08,24,02,43,14.40
2016,08,24,02,44,14.30
2016,08,24,02,45,14.30
2016,08,24,02,46,14.30
2016,08,24,02,47,14.30
2016,08,24,02,48,14.30
2016,08,24,02,49,14.30
2016,08,24,02,50,14.30
2016,08,24,02,51,14.30
2016,08,24,02,52,14.30
2016,08,24,02,53,14.30
2016,08,24,02,54,14.30
2016,08,24,02,55,14.30
2016,08,24,02,56,14.30
2016,08,24,02,57,14.40
2016,08,24,02,58,14.40
2016,08,24,02,59,14.40
2016,08,24,03,00,14.40
2016,08,24,03,01,14.40
2016,08,24,03,02,14.40
2016,08,24,03,03,14.40
2016,08,24,03,04,14.40
2016,08,24,03,05,14.40
2016,08,24,03,06,14.40
2016,08,24,03,07,14.40
2016,08,24,03,08,14.30
2016,08,24,03,09,14.40
2016,08,24,03,10,14.40
2016,08,24,03,11,14.40
2016,08,24,03,12,14.40
2016,08,24,03,13,14.40
2016,08,24,03,14,14.40
2016,08,24,03,15,14.40
2016,08,24,03,16,14.40
2016,08,24,03,17,14.40
2016,08,24,03,18,14.30
2016,08,24,03,19,14.30
2016,08,24,03,20,14.30
2016,08,24,03,21,14.30
2016,08,24,03,22,14.30
2016,08,24,03,23,14.20
2016,08,24,03,24,14.20
2016,08,24,03,25,14.20
2016,08,24,03,26,14.10
2016,08,24,03,27,14.10
2016,08,24,03,28,14.10
2016,08,24,03,29,14.10
2016,08,24,03,30,14.10
2016,08,24,03,31,14.20
2016,08,24,03,32,14.20
2016,08,24,03,33,14.20
2016,08,24,03,34,14.20
2016,08,24,03,35,14.20
2016,08,24,03,36,14.20
2016,08,24,03,37,14.20
2016,08,24,03,38,14.20
2016,08,24,03,39,14.20
2016,08,24,03,40,14.20
2016,08,24,03,41,14.20
2016,08,24,03,42,14.10
2016,08,24,03,43,14.10
2016,08,24,03,44,14.10
2016,08,24,03,45,14.10
2016,08,24,03,46,14.10
2016,08,24,03,47,14.10
2016,08,24,03,48,14.10
2016,08,24,03,49,14.10
2016,08,24,03,50,14.10
2016,08,24,03,51,14.10
2016,08,24,03,52,14.10
2016,08,24,03,53,14.10
2016,08,24,03,54,14.10
2016,08,24,03,55,14.10
2016,08,24,03,56,14.10
2016,08,24,03,57,14.10
2016,08,24,03,58,14.10
2016,08,24,03,59,14.10
2016,08,24,04,00,14.10
2016,08,24,04,01,14.10
2016,08,24,04,02,14.10
2016,08,24,04,03,14.10
2016,08,24,04,04,14.10
2016,08,24,04,05,14.00
2016,08,24,04,06,14.00
2016,08,24,04,07,14.00
2016,08,24,04,08,13.90
2016,08,24,04,09,13.90
2016,08,24,04,10,13.90
2016,08,24,04,11,13.90
2016,08,24,04,12,13.90
2016,08,24,04,13,13.90
2016,08,24,04,14,13.90
2016,08,24,04,15,13.90
2016,08,24,04,16,13.90
2016,08,24,04,17,13.90
2016,08,24,04,18,13.90
2016,08,24,04,19,13.90
2016,08,24,04,20,13.90
2016,08,24,04,21,14.00
2016,08,24,04,22,13.90
2016,08,24,04,23,13.90
2016,08,24,04,24,13.90
2016,08,24,04,25,13.90
2016,08,24,04,26,13.90
2016,08,24,04,27,13.80
2016,08,24,04,28,13.80
2016,08,24,04,29,13.80
2016,08,24,04,30,13.70
2016,08,24,04,31,13.70
2016,08,24,04,32,13.70
2016,08,24,04,33,13.70
2016,08,24,04,34,13.60
2016,08,24,04,35,13.60
2016,08,24,04,36,13.60
2016,08,24,04,37,13.60
2016,08,24,04,38,13.60
2016,08,24,04,39,13.60
2016,08,24,04,40,13.60
2016,08,24,04,41,13.60
2016,08,24,04,42,13.50
2016,08,24,04,43,13.50
2016,08,24,04,44,13.50
2016,08,24,04,45,13.50
2016,08,24,04,46,13.40
2016,08,24,04,47,13.40
2016,08,24,04,48,13.40
2016,08,24,04,49,13.40
2016,08,24,04,50,13.40
2016,08,24,04,51,13.40
2016,08,24,04,52,13.40
2016,08,24,04,53,13.40
2016,08,24,04,54,13.40
2016,08,24,04,55,13.40
2016,08,24,04,56,13.40
2016,08,24,04,57,13.30
2016,08,24,04,58,13.30
2016,08,24,04,59,13.30
2016,08,24,05,00,13.30
2016,08,24,05,01,13.30
2016,08,24,05,02,13.30
2016,08,24,05,03,13.30
2016,08,24,05,04,13.30
2016,08,24,05,05,13.30
2016,08,24,05,06,13.30
2016,08,24,05,07,13.20
2016,08,24,05,08,13.20
2016,08,24,05,09,13.20
2016,08,24,05,10,13.20
2016,08,24,05,11,13.10
2016,08,24,05,12,13.10
2016,08,24,05,13,13.10
2016,08,24,05,14,13.10
2016,08,24,05,15,13.10
2016,08,24,05,16,13.10
2016,08,24,05,17,13.10
2016,08,24,05,18,13.10
2016,08,24,05,19,13.10
2016,08,24,05,20,13.10
2016,08,24,05,21,13.20
2016,08,24,05,22,13.20
2016,08,24,05,23,13.20
2016,08,24,05,24,13.20
2016,08,24,05,25,13.20
2016,08,24,05,26,13.20
2016,08,24,05,27,13.20
2016,08,24,05,28,13.20
2016,08,24,05,29,13.10
2016,08,24,05,30,13.10
2016,08,24,05,31,13.10
2016,08,24,05,32,13.20
2016,08,24,05,33,13.20
2016,08,24,05,34,13.20
2016,08,24,05,35,13.20
2016,08,24,05,36,13.20
2016,08,24,05,37,13.20
2016,08,24,05,38,13.20
2016,08,24,05,39,13.20
2016,08,24,05,40,13.20
2016,08,24,05,41,13.10
2016,08,24,05,42,13.10
2016,08,24,05,43,13.10
2016,08,24,05,44,13.00
2016,08,24,05,45,13.00
2016,08,24,05,46,13.00
2016,08,24,05,47,13.00
2016,08,24,05,48,13.00
2016,08,24,05,49,13.00
2016,08,24,05,50,13.00
2016,08,24,05,51,13.00
2016,08,24,05,52,13.00
2016,08,24,05,53,13.00
2016,08,24,05,54,13.00
2016,08,24,05,55,13.10
2016,08,24,05,56,13.10
2016,08,24,05,57,13.10
2016,08,24,05,58,13.20
2016,08,24,05,59,13.20
2016,08,24,06,00,13.30
2016,08,24,06,01,13.30
2016,08,24,06,02,13.40
2016,08,24,06,03,13.40
2016,08,24,06,04,13.40
2016,08,24,06,05,13.40
2016,08,24,06,06,13.40
2016,08,24,06,07,13.50
2016,08,24,06,08,13.40
2016,08,24,06,09,13.50
2016,08,24,06,10,13.50
2016,08,24,06,11,13.50
2016,08,24,06,12,13.60
2016,08,24,06,13,13.60
2016,08,24,06,14,13.60
2016,08,24,06,15,13.60
2016,08,24,06,16,13.60
2016,08,24,06,17,13.70
2016,08,24,06,18,13.70
2016,08,24,06,19,13.70
2016,08,24,06,20,13.80
2016,08,24,06,21,13.80
2016,08,24,06,22,13.80
2016,08,24,06,23,13.90
2016,08,24,06,24,13.90
2016,08,24,06,25,13.90
2016,08,24,06,26,13.90
2016,08,24,06,27,14.00
2016,08,24,06,28,14.00
2016,08,24,06,29,14.00
2016,08,24,06,30,14.00
2016,08,24,06,31,14.00
2016,08,24,06,32,13.90
2016,08,24,06,33,13.90
2016,08,24,06,34,13.80
2016,08,24,06,35,13.80
2016,08,24,06,36,13.70
2016,08,24,06,37,13.60
2016,08,24,06,38,13.60
2016,08,24,06,39,13.50
2016,08,24,06,40,13.50
2016,08,24,06,41,13.40
2016,08,24,06,42,13.40
2016,08,24,06,43,13.40
2016,08,24,06,44,13.40
2016,08,24,06,45,13.40
2016,08,24,06,46,13.40
2016,08,24,06,47,13.40
2016,08,24,06,48,13.40
2016,08,24,06,49,13.40
2016,08,24,06,50,13.50
2016,08,24,06,51,13.50
2016,08,24,06,52,13.60
2016,08,24,06,53,13.60
2016,08,24,06,54,13.60
2016,08,24,06,55,13.70
2016,08,24,06,56,13.70
2016,08,24,06,57,13.70
2016,08,24,06,58,13.80
2016,08,24,06,59,13.80
2016,08,24,07,00,13.90
2016,08,24,07,01,13.90
2016,08,24,07,02,13.90
2016,08,24,07,03,14.00
2016,08,24,07,04,14.00
2016,08,24,07,05,14.00
2016,08,24,07,06,14.10
2016,08,24,07,07,14.10
2016,08,24,07,08,14.10
2016,08,24,07,09,14.20
2016,08,24,07,10,14.20
2016,08,24,07,11,14.20
2016,08,24,07,12,14.30
2016,08,24,07,13,14.30
2016,08,24,07,14,14.40
2016,08,24,07,15,14.50
2016,08,24,07,16,14.50
2016,08,24,07,17,14.60
2016,08,24,07,18,14.60
2016,08,24,07,19,14.70
2016,08,24,07,20,14.70
2016,08,24,07,21,14.80
2016,08,24,07,22,14.80
2016,08,24,07,23,14.90
2016,08,24,07,24,14.90
2016,08,24,07,25,15.00
2016,08,24,07,26,15.10
2016,08,24,07,27,15.20
2016,08,24,07,28,15.30
2016,08,24,07,29,15.40
2016,08,24,07,30,15.50
2016,08,24,07,31,15.50
2016,08,24,07,32,15.60
2016,08,24,07,33,15.60
2016,08,24,07,34,15.70
2016,08,24,07,35,15.70
2016,08,24,07,36,15.80
2016,08,24,07,37,15.80
2016,08,24,07,38,15.90
2016,08,24,07,39,15.90
2016,08,24,07,40,15.90
2016,08,24,07,41,16.00
2016,08,24,07,42,16.00
2016,08,24,07,43,16.10
2016,08,24,07,44,16.10
2016,08,24,07,45,16.10
2016,08,24,07,46,16.10
2016,08,24,07,47,16.20
2016,08,24,07,48,16.20
2016,08,24,07,49,16.20
2016,08,24,07,50,16.20
2016,08,24,07,51,16.20
2016,08,24,07,52,16.20
2016,08,24,07,53,16.20
2016,08,24,07,54,16.30
2016,08,24,07,55,16.30
2016,08,24,07,56,16.30
2016,08,24,07,57,16.30
2016,08,24,07,58,16.30
2016,08,24,07,59,16.40
2016,08,24,08,00,16.40
2016,08,24,08,01,16.40
2016,08,24,08,02,16.50
2016,08,24,08,03,16.50
2016,08,24,08,04,16.50
2016,08,24,08,05,16.60
2016,08,24,08,06,16.60
2016,08,24,08,07,16.60
2016,08,24,08,08,16.60
2016,08,24,08,09,16.60
2016,08,24,08,10,16.70
2016,08,24,08,11,16.70
2016,08,24,08,12,16.70
2016,08,24,08,13,16.70
2016,08,24,08,14,16.80
2016,08,24,08,15,16.80
2016,08,24,08,16,16.90
2016,08,24,08,17,16.90
2016,08,24,08,18,17.00
2016,08,24,08,19,17.10
2016,08,24,08,20,17.10
2016,08,24,08,21,17.20
2016,08,24,08,22,17.20
2016,08,24,08,23,17.30
2016,08,24,08,24,17.30
2016,08,24,08,25,17.30
2016,08,24,08,26,17.40
2016,08,24,08,27,17.40
2016,08,24,08,28,17.50
2016,08,24,08,29,17.50
2016,08,24,08,30,17.60
2016,08,24,08,31,17.60
2016,08,24,08,32,17.70
2016,08,24,08,33,17.70
2016,08,24,08,34,17.70
2016,08,24,08,35,17.80
2016,08,24,08,36,17.80
2016,08,24,08,37,17.80
2016,08,24,08,38,17.90
2016,08,24,08,39,17.90
2016,08,24,08,40,17.90
2016,08,24,08,41,18.00
2016,08,24,08,42,18.00
2016,08,24,08,43,18.10
2016,08,24,08,44,18.10
2016,08,24,08,45,18.10
2016,08,24,08,46,18.20
2016,08,24,08,47,18.20
2016,08,24,08,48,18.20
2016,08,24,08,49,18.30
2016,08,24,08,50,18.40
2016,08,24,08,51,18.50
2016,08,24,08,52,18.60
2016,08,24,08,53,18.70
2016,08,24,08,54,18.90
2016,08,24,08,55,19.10
2016,08,24,08,56,19.30
2016,08,24,08,57,19.50
2016,08,24,08,58,19.70
2016,08,24,08,59,19.90
2016,08,24,09,00,20.10
2016,08,24,09,01,20.30
2016,08,24,09,02,20.40
2016,08,24,09,03,20.50
2016,08,24,09,04,20.60
2016,08,24,09,05,20.60
2016,08,24,09,06,20.70
2016,08,24,09,07,20.70
2016,08,24,09,08,20.80
2016,08,24,09,09,20.80
2016,08,24,09,10,20.90
2016,08,24,09,11,20.90
2016,08,24,09,12,20.90
2016,08,24,09,13,21.00
2016,08,24,09,14,21.10
2016,08,24,09,15,21.10
2016,08,24,09,16,21.20
2016,08,24,09,17,21.30
2016,08,24,09,18,21.30
2016,08,24,09,19,21.30
2016,08,24,09,20,21.40
2016,08,24,09,21,21.40
2016,08,24,09,22,21.40
2016,08,24,09,23,21.40
2016,08,24,09,24,21.40
2016,08,24,09,25,21.40
2016,08,24,09,26,21.40
2016,08,24,09,27,21.50
2016,08,24,09,28,21.40
2016,08,24,09,29,21.40
2016,08,24,09,30,21.30
2016,08,24,09,31,21.30
2016,08,24,09,32,21.30
2016,08,24,09,33,21.30
2016,08,24,09,34,21.30
2016,08,24,09,35,21.30
2016,08,24,09,36,21.30
2016,08,24,09,37,21.30
2016,08,24,09,38,21.30
2016,08,24,09,39,21.30
2016,08,24,09,40,21.30
2016,08,24,09,41,21.30
2016,08,24,09,42,21.30
2016,08,24,09,43,21.30
2016,08,24,09,44,21.30
2016,08,24,09,45,21.30
2016,08,24,09,46,21.40
2016,08,24,09,47,21.40
2016,08,24,09,48,21.50
2016,08,24,09,49,21.50
2016,08,24,09,50,21.60
2016,08,24,09,51,21.60
2016,08,24,09,52,21.60
2016,08,24,09,53,21.70
2016,08,24,09,54,21.70
2016,08,24,09,55,21.70
2016,08,24,09,56,21.80
2016,08,24,09,57,21.80
2016,08,24,09,58,21.90
2016,08,24,09,59,21.90
2016,08,24,10,00,22.00
2016,08,24,10,01,22.10
2016,08,24,10,02,22.10
2016,08,24,10,03,22.10
2016,08,24,10,04,22.20
2016,08,24,10,05,22.20
2016,08,24,10,06,22.20
2016,08,24,10,07,22.30
2016,08,24,10,08,22.30
2016,08,24,10,09,22.30
2016,08,24,10,10,22.40
2016,08,24,10,11,22.40
2016,08,24,10,12,22.40
2016,08,24,10,13,22.40
2016,08,24,10,14,22.50
2016,08,24,10,15,22.60
2016,08,24,10,16,22.70
2016,08,24,10,17,22.70
2016,08,24,10,18,22.80
2016,08,24,10,19,22.80
2016,08,24,10,20,22.90
2016,08,24,10,21,23.00
2016,08,24,10,22,23.00
2016,08,24,10,23,23.10
2016,08,24,10,24,23.10
2016,08,24,10,25,23.20
2016,08,24,10,26,23.20
2016,08,24,10,27,23.20
2016,08,24,10,28,23.20
2016,08,24,10,29,23.10
2016,08,24,10,30,23.10
2016,08,24,10,31,23.10
2016,08,24,10,32,23.10
2016,08,24,10,33,23.20
2016,08,24,10,34,23.20
2016,08,24,10,35,23.30
2016,08,24,10,36,23.30
2016,08,24,10,37,23.40
2016,08,24,10,38,23.50
2016,08,24,10,39,23.60
2016,08,24,10,40,23.80
2016,08,24,10,41,23.90
2016,08,24,10,42,24.00
2016,08,24,10,43,24.10
2016,08,24,10,44,24.20
2016,08,24,10,45,24.30
2016,08,24,10,46,24.30
2016,08,24,10,47,24.40
2016,08,24,10,48,24.50
2016,08,24,10,49,24.60
2016,08,24,10,50,24.60
2016,08,24,10,51,24.60
2016,08,24,10,52,24.60
2016,08,24,10,53,24.50
2016,08,24,10,54,24.70
2016,08,24,10,55,24.70
2016,08,24,10,56,24.80
2016,08,24,10,57,24.80
2016,08,24,10,58,24.90
2016,08,24,10,59,24.90
2016,08,24,11,00,25.00
2016,08,24,11,01,25.00
2016,08,24,11,02,25.00
2016,08,24,11,03,25.10
2016,08,24,11,04,25.10
2016,08,24,11,05,25.00
2016,08,24,11,06,24.80
2016,08,24,11,07,24.50
2016,08,24,11,08,24.30
2016,08,24,11,09,24.20
2016,08,24,11,10,24.30
2016,08,24,11,11,24.30
2016,08,24,11,12,24.30
2016,08,24,11,13,24.20
2016,08,24,11,14,24.20
2016,08,24,11,15,24.20
2016,08,24,11,16,24.20
2016,08,24,11,17,24.20
2016,08,24,11,18,24.30
2016,08,24,11,19,24.50
2016,08,24,11,20,24.60
2016,08,24,11,21,24.70
2016,08,24,11,22,24.80
2016,08,24,11,23,24.90
2016,08,24,11,24,24.90
2016,08,24,11,25,24.90
2016,08,24,11,26,25.00
2016,08,24,11,27,25.10
2016,08,24,11,28,25.00
2016,08,24,11,29,24.90
2016,08,24,11,30,25.00
2016,08,24,11,31,25.10
2016,08,24,11,32,25.20
2016,08,24,11,33,25.20
2016,08,24,11,34,25.30
2016,08,24,11,35,25.40
2016,08,24,11,36,25.50
2016,08,24,11,37,25.50
2016,08,24,11,38,25.30
2016,08,24,11,39,25.20
2016,08,24,11,40,25.10
2016,08,24,11,41,25.10
2016,08,24,11,42,25.10
2016,08,24,11,43,25.00
2016,08,24,11,44,24.90
2016,08,24,11,45,24.90
2016,08,24,11,46,24.90
2016,08,24,11,47,24.90
2016,08,24,11,48,25.00
2016,08,24,11,49,25.00
2016,08,24,11,50,25.10
2016,08,24,11,51,25.30
2016,08,24,11,52,25.40
2016,08,24,11,53,25.60
2016,08,24,11,54,25.70
2016,08,24,11,55,25.90
2016,08,24,11,56,26.00
2016,08,24,11,57,26.10
2016,08,24,11,58,26.20
2016,08,24,11,59,26.30
2016,08,24,12,00,26.30
2016,08,24,12,01,26.40
2016,08,24,12,02,26.30
2016,08,24,12,03,26.20
2016,08,24,12,04,26.20
2016,08,24,12,05,26.20
2016,08,24,12,06,26.30
2016,08,24,12,07,26.30
2016,08,24,12,08,26.20
2016,08,24,12,09,26.10
2016,08,24,12,10,25.80
2016,08,24,12,11,25.70
2016,08,24,12,12,25.60
2016,08,24,12,13,25.50
2016,08,24,12,14,25.40
2016,08,24,12,15,25.20
2016,08,24,12,16,24.90
2016,08,24,12,17,24.80
2016,08,24,12,18,24.90
2016,08,24,12,19,24.90
2016,08,24,12,20,24.90
2016,08,24,12,21,25.00
2016,08,24,12,22,25.20
2016,08,24,12,23,25.30
2016,08,24,12,24,25.30
2016,08,24,12,25,25.30
2016,08,24,12,26,25.40
2016,08,24,12,27,25.50
2016,08,24,12,28,25.50
2016,08,24,12,29,25.40
2016,08,24,12,30,25.30
2016,08,24,12,31,25.30
2016,08,24,12,32,25.30
2016,08,24,12,33,25.30
2016,08,24,12,34,25.50
2016,08,24,12,35,25.50
2016,08,24,12,36,25.40
2016,08,24,12,37,25.30
2016,08,24,12,38,25.20
2016,08,24,12,39,25.20
2016,08,24,12,40,25.20
2016,08,24,12,41,25.20
2016,08,24,12,42,25.20
2016,08,24,12,43,25.10
2016,08,24,12,44,25.10
2016,08,24,12,45,25.10
2016,08,24,12,46,25.20
2016,08,24,12,47,25.30
2016,08,24,12,48,25.40
2016,08,24,12,49,25.50
2016,08,24,12,50,25.60
2016,08,24,12,51,25.70
2016,08,24,12,52,25.80
2016,08,24,12,53,25.80
2016,08,24,12,54,25.80
2016,08,24,12,55,25.80
2016,08,24,12,56,25.70
2016,08,24,12,57,25.70
2016,08,24,12,58,25.70
2016,08,24,12,59,25.70
2016,08,24,13,00,25.70
2016,08,24,13,01,25.70
2016,08,24,13,02,25.60
2016,08,24,13,03,25.60
2016,08,24,13,04,25.50
2016,08,24,13,05,25.30
2016,08,24,13,06,25.20
2016,08,24,13,07,25.20
2016,08,24,13,08,25.20
2016,08,24,13,09,25.30
2016,08,24,13,10,25.30
2016,08,24,13,11,25.50
2016,08,24,13,12,25.70
2016,08,24,13,13,25.90
2016,08,24,13,14,26.10
2016,08,24,13,15,26.20
2016,08,24,13,16,26.30
2016,08,24,13,17,26.30
2016,08,24,13,18,26.20
2016,08,24,13,19,26.20
2016,08,24,13,20,26.20
2016,08,24,13,21,26.20
2016,08,24,13,22,26.30
2016,08,24,13,23,26.40
2016,08,24,13,24,26.50
2016,08,24,13,25,26.70
2016,08,24,13,26,26.90
2016,08,24,13,27,27.00
2016,08,24,13,28,27.10
2016,08,24,13,29,27.20
2016,08,24,13,30,27.10
2016,08,24,13,31,27.00
2016,08,24,13,32,26.90
2016,08,24,13,33,26.90
2016,08,24,13,34,26.90
2016,08,24,13,35,26.90
2016,08,24,13,36,27.00
2016,08,24,13,37,27.10
2016,08,24,13,38,27.20
2016,08,24,13,39,27.10
2016,08,24,13,40,26.90
2016,08,24,13,41,26.80
2016,08,24,13,42,26.70
2016,08,24,13,43,26.70
2016,08,24,13,44,26.70
2016,08,24,13,45,26.70
2016,08,24,13,46,26.70
2016,08,24,13,47,26.80
2016,08,24,13,48,26.80
2016,08,24,13,49,26.80
2016,08,24,13,50,26.80
2016,08,24,13,51,26.80
2016,08,24,13,52,26.80
2016,08,24,13,53,26.90
2016,08,24,13,54,26.90
2016,08,24,13,55,26.90
2016,08,24,13,56,26.90
2016,08,24,13,57,27.00
2016,08,24,13,58,26.90
2016,08,24,13,59,27.00
2016,08,24,14,00,27.10
2016,08,24,14,01,27.20
2016,08,24,14,02,27.20
2016,08,24,14,03,27.30
2016,08,24,14,04,27.40
2016,08,24,14,05,27.30
2016,08,24,14,06,27.30
2016,08,24,14,07,27.30
2016,08,24,14,08,27.40
2016,08,24,14,09,27.40
2016,08,24,14,10,27.40
2016,08,24,14,11,27.30
2016,08,24,14,12,27.30
2016,08,24,14,13,27.50
2016,08,24,14,14,27.50
2016,08,24,14,15,27.50
2016,08,24,14,16,27.50
2016,08,24,14,17,27.40
2016,08,24,14,18,27.50
2016,08,24,14,19,27.40
2016,08,24,14,20,27.40
2016,08,24,14,21,27.50
2016,08,24,14,22,27.60
2016,08,24,14,23,27.70
2016,08,24,14,24,27.70
2016,08,24,14,25,27.70
2016,08,24,14,26,27.70
2016,08,24,14,27,27.60
2016,08,24,14,28,27.50
2016,08,24,14,29,27.50
2016,08,24,14,30,27.60
2016,08,24,14,31,27.60
2016,08,24,14,32,27.50
2016,08,24,14,33,27.40
2016,08,24,14,34,27.30
2016,08,24,14,35,27.30
2016,08,24,14,36,27.30
2016,08,24,14,37,27.30
2016,08,24,14,38,27.30
2016,08,24,14,39,27.30
2016,08,24,14,40,27.30
2016,08,24,14,41,27.30
2016,08,24,14,42,27.40
2016,08,24,14,43,27.40
2016,08,24,14,44,27.40
2016,08,24,14,45,27.40
2016,08,24,14,46,27.40
2016,08,24,14,47,27.30
2016,08,24,14,48,27.30
2016,08,24,14,49,27.40
2016,08,24,14,50,27.50
2016,08,24,14,51,27.50
2016,08,24,14,52,27.60
2016,08,24,14,53,27.70
2016,08,24,14,54,27.80
2016,08,24,14,55,27.90
2016,08,24,14,56,28.00
2016,08,24,14,57,28.00
2016,08,24,14,58,28.00
2016,08,24,14,59,28.00
2016,08,24,15,00,28.10
2016,08,24,15,01,28.00
2016,08,24,15,02,27.90
2016,08,24,15,03,27.70
2016,08,24,15,04,27.50
2016,08,24,15,05,27.40
2016,08,24,15,06,27.40
2016,08,24,15,07,27.40
2016,08,24,15,08,27.40
2016,08,24,15,09,27.40
2016,08,24,15,10,27.40
2016,08,24,15,11,27.30
2016,08,24,15,12,27.40
2016,08,24,15,13,27.50
2016,08,24,15,14,27.50
2016,08,24,15,15,27.50
2016,08,24,15,16,27.40
2016,08,24,15,17,27.40
2016,08,24,15,18,27.40
2016,08,24,15,19,27.50
2016,08,24,15,20,27.50
2016,08,24,15,21,27.60
2016,08,24,15,22,27.60
2016,08,24,15,23,27.70
2016,08,24,15,24,27.90
2016,08,24,15,25,28.20
2016,08,24,15,26,28.30
2016,08,24,15,27,28.30
2016,08,24,15,28,28.30
2016,08,24,15,29,28.30
2016,08,24,15,30,28.30
2016,08,24,15,31,28.30
2016,08,24,15,32,28.30
2016,08,24,15,33,28.30
2016,08,24,15,34,28.20
2016,08,24,15,35,28.10
2016,08,24,15,36,28.20
2016,08,24,15,37,28.30
2016,08,24,15,38,28.40
2016,08,24,15,39,28.50
2016,08,24,15,40,28.60
2016,08,24,15,41,28.80
2016,08,24,15,42,28.90
2016,08,24,15,43,28.90
2016,08,24,15,44,28.90
2016,08,24,15,45,28.90
2016,08,24,15,46,29.00
2016,08,24,15,47,29.00
2016,08,24,15,48,29.00
2016,08,24,15,49,29.10
2016,08,24,15,50,29.20
2016,08,24,15,51,29.20
2016,08,24,15,52,29.10
2016,08,24,15,53,29.10
2016,08,24,15,54,29.20
2016,08,24,15,55,29.30
2016,08,24,15,56,29.30
2016,08,24,15,57,29.30
2016,08,24,15,58,29.30
2016,08,24,15,59,29.20
2016,08,24,16,00,29.20
2016,08,24,16,01,29.20
2016,08,24,16,02,29.20
2016,08,24,16,03,29.20
2016,08,24,16,04,29.20
2016,08,24,16,05,29.10
2016,08,24,16,06,29.10
2016,08,24,16,07,29.00
2016,08,24,16,08,29.00
2016,08,24,16,09,29.00
2016,08,24,16,10,29.10
2016,08,24,16,11,29.10
2016,08,24,16,12,29.10
2016,08,24,16,13,29.20
2016,08,24,16,14,29.20
2016,08,24,16,15,29.20
2016,08,24,16,16,29.20
2016,08,24,16,17,29.20
2016,08,24,16,18,29.20
2016,08,24,16,19,29.20
2016,08,24,16,20,29.30
2016,08,24,16,21,29.30
2016,08,24,16,22,29.30
2016,08,24,16,23,29.30
2016,08,24,16,24,29.30
2016,08,24,16,25,29.30
2016,08,24,16,26,29.30
2016,08,24,16,27,29.40
2016,08,24,16,28,29.50
2016,08,24,16,29,29.50
2016,08,24,16,30,29.50
2016,08,24,16,31,29.50
2016,08,24,16,32,29.50
2016,08,24,16,33,29.60
2016,08,24,16,34,29.70
2016,08,24,16,35,29.70
2016,08,24,16,36,29.70
2016,08,24,16,37,29.80
2016,08,24,16,38,29.80
2016,08,24,16,39,29.80
2016,08,24,16,40,29.80
2016,08,24,16,41,29.90
2016,08,24,16,42,30.00
2016,08,24,16,43,30.00
2016,08,24,16,44,30.10
2016,08,24,16,45,30.10
2016,08,24,16,46,30.10
2016,08,24,16,47,30.10
2016,08,24,16,48,30.20
2016,08,24,16,49,30.20
2016,08,24,16,50,30.30
2016,08,24,16,51,30.40
2016,08,24,16,52,30.40
2016,08,24,16,53,30.40
2016,08,24,16,54,30.40
2016,08,24,16,55,30.40
2016,08,24,16,56,30.40
2016,08,24,16,57,30.30
2016,08,24,16,58,30.30
2016,08,24,16,59,30.30
2016,08,24,17,00,30.30
2016,08,24,17,01,30.40
2016,08,24,17,02,30.40
2016,08,24,17,03,30.50
2016,08,24,17,04,30.60
2016,08,24,17,05,30.60
2016,08,24,17,06,30.60
2016,08,24,17,07,30.60
2016,08,24,17,08,30.60
2016,08,24,17,09,30.60
2016,08,24,17,10,30.60
2016,08,24,17,11,30.60
2016,08,24,17,12,30.50
2016,08,24,17,13,30.40
2016,08,24,17,14,30.40
2016,08,24,17,15,30.40
2016,08,24,17,16,30.40
2016,08,24,17,17,30.50
2016,08,24,17,18,30.50
2016,08,24,17,19,30.50